sat.trackr.live / text

‹ back to catalog

STARLINK-2594

NORAD 48388 · 2021-038AM

PAYLOAD ACTIVE UNKNOWN

§ Identity

Operator
Country
US
Launch date
2021-05-04
Launch site
AFETR
Launch vehicle
Mass (kg)
RCS (m²)

Purposes: comms

External: N2YO · Heavens-Above · Gunter

§ Orbital elements

Epoch: 2026-09-13T02:14:39.414336Z

Period
94.01 min
Inclination
53.1613°
Eccentricity
0.0001534
Mean motion
15.31673491 rev/d
Perigee alt
469.8 km
Apogee alt
471.9 km
Semi-major
6,849.0 km
B*
9.6966e-5
RAAN
193.1901°
Arg perigee
103.9521°
Mean anomaly
256.1651°
Rev number
29,597

§ Raw data

STARLINK-25941 48388U 21038AM  26256.09351174  .00002642  00000+0  96966-4 0  99992 48388  53.1613 193.1901 0001534 103.9521 256.1651 15.31673491295978

JSON: /api/v1/satellites/48388 · /tle

For live sub-satellite position, see the globe view (requires WebGL).

§ Visibility from observer

Set your observer location to see the next 7 days of passes ≥ 10°. The values pass through the URL so the page stays shareable.

No JS? Fill the form by hand. The geolocation button needs JavaScript.